Hamilton, OH

2:08 AM EDT on September 20, 2017 (GMT -0400)
Butler County Regional

Weather History for KHAO - November, 2013

Change the Weather History Date:

Wednesday, November 20, 2013

  Actual Average (KLUK) Record (KLUK)
Temperature  
Mean Temperature 38 °F -  
Max Temperature 52 °F 53 °F 70 °F (1985)
Min Temperature 23 °F 35 °F 19 °F (1959)
Degree Days  
Heating Degree Days 28    
Moisture  
Dew Point 27 °F    
Average Humidity 70    
Maximum Humidity 89    
Minimum Humidity 41    
Precipitation  
Precipitation 0.00 in - - ()
Sea Level Pressure  
Sea Level Pressure 30.32 in    
Wind  
Wind Speed 3 mph (East)    
Max Wind Speed 7 mph    
Max Gust Speed -    
Visibility 10 miles    
Events Snow    
Averages and records for this station are not official NWS values.
T = Trace of Precipitation, MM = Missing Value Source: NWS Daily Summary

Daily Weather History Graph

Daily Weather History Graph

Search for Another Location

Airport or City:

Trip Planner

Search our weather history database for the weather conditions in past years. The results will help you decide how hot, cold, wet, or windy it might be!

Date:

Astronomy

Nov. 20, 2013 Rise Set
Actual Time 7:27 AM EST 5:19 PM EST
Civil Twilight 6:58 AM EST 5:48 PM EST
Nautical Twilight 6:25 AM EST 6:21 PM EST
Astronomical Twilight 5:53 AM EST 6:53 PM EST
Moon 8:01 PM EST 9:52 AM EST
Length of Visible Light 10h 50m
Length of Day
9h 51m
Waning Gibbous, 91% of the Moon is Illuminated
Nov 20
Waning Gibbous
Nov 25
Last Quarter
Dec 2
New
Dec 9
First Quarter
Dec 17
Full

Hourly Weather History & Observations

Time (EST) Temp. Windchill Dew Point Humidity Pressure Visibility Wind Dir Wind Speed Gust Speed Precip Events Conditions
12:53 AM 27.0 °F 23.0 °F 24.1 °F 89% 30.36 in 9.0 mi East 3.5 mph - 0.00 in Snow Light Snow
1:53 AM 28.0 °F 24.2 °F 24.1 °F 85% 30.35 in 9.0 mi ENE 3.5 mph - 0.00 in Snow Light Snow
2:53 AM 26.1 °F - 23.0 °F 88% 30.36 in 9.0 mi Calm Calm - 0.00 in Snow Light Snow
3:53 AM 25.0 °F 19.3 °F 21.9 °F 88% 30.37 in 9.0 mi ENE 4.6 mph - 0.00 in Snow Light Snow
4:53 AM 25.0 °F - 21.9 °F 88% 30.37 in 9.0 mi Calm Calm - 0.00 in Snow Light Snow
5:53 AM 24.1 °F - 21.0 °F 88% 30.37 in 10.0 mi Calm Calm - 0.00 in Snow Light Snow
6:53 AM 23.0 °F 17.0 °F 19.0 °F 85% 30.37 in 9.0 mi ENE 4.6 mph - 0.00 in Snow Light Snow
7:53 AM 26.1 °F - 23.0 °F 88% 30.37 in 9.0 mi Calm Calm - 0.00 in Snow Light Snow
8:53 AM 32.0 °F 26.4 °F 27.0 °F 82% 30.36 in 9.0 mi East 5.8 mph - 0.00 in Snow Light Snow
9:53 AM 36.0 °F 30.3 °F 27.0 °F 70% 30.37 in 10.0 mi ESE 6.9 mph - 0.00 in   Clear
10:53 AM 39.9 °F 35.8 °F 27.0 °F 60% 30.36 in 10.0 mi ESE 5.8 mph - N/A   Clear
11:53 AM 43.0 °F 39.5 °F 27.0 °F 53% 30.34 in 10.0 mi ESE 5.8 mph - N/A   Clear
12:53 PM 46.0 °F 43.1 °F 28.0 °F 50% 30.31 in 10.0 mi SE 5.8 mph - N/A   Clear
1:53 PM 48.0 °F - 30.0 °F 50% 30.27 in 10.0 mi Variable 5.8 mph - N/A   Clear
2:53 PM 52.0 °F - 30.0 °F 43% 30.26 in 10.0 mi Variable 3.5 mph - N/A   Clear
3:53 PM 52.0 °F - 28.9 °F 41% 30.25 in 10.0 mi Variable 4.6 mph - N/A   Clear
4:53 PM 48.9 °F - 28.9 °F 46% 30.26 in 10.0 mi South 4.6 mph - N/A   Clear
5:53 PM 44.1 °F 41.5 °F 30.0 °F 58% 30.26 in 10.0 mi East 4.6 mph - N/A   Clear
6:53 PM 39.9 °F - 30.9 °F 70% 30.27 in 10.0 mi Calm Calm - N/A   Clear
7:53 PM 39.0 °F 35.7 °F 30.9 °F 73% 30.27 in 10.0 mi East 4.6 mph - N/A   Clear
8:53 PM 39.0 °F - 30.0 °F 70% 30.27 in 10.0 mi Calm Calm - N/A   Clear
9:53 PM 37.9 °F 35.5 °F 30.9 °F 76% 30.26 in 10.0 mi East 3.5 mph - N/A   Clear
10:53 PM 39.0 °F 35.7 °F 30.9 °F 73% 30.27 in 10.0 mi East 4.6 mph - N/A   Clear
11:53 PM 39.9 °F 37.8 °F 30.9 °F 70% 30.26 in 10.0 mi East 3.5 mph - N/A   Clear